PBO Station Position Time Series. Reference Frame : NAM14
Format Version,1.1.0
4-character ID,AB49
Station name,KlawockAirAK2006
Begin Date, 2006-05-02
End Date, 2019-10-07
Release Date, 2019-10-08
Reference position, 55.5801014909 North Latitude, -133.0684870804 East Longitude, 17.55575 meters elevation,
Date, North (mm), East (mm), Vertical (mm), North Std. Deviation (mm), East Std. Deviation (mm),              Vertical Std. Deviation (mm), Quality,
2006-05-02,0.00, 0.00, 0.00, 2.28, 1.52, 6.99, repro,
2006-05-03,-0.55, -0.19, 0.94, 2.33, 1.54, 7.07, repro,
2006-05-04,0.15, 0.41, 1.77, 2.32, 1.55, 7.12, repro,
2006-05-05,0.53, -0.96, 9.84, 2.29, 1.52, 7.07, repro,
2006-05-06,0.37, -0.86, 12.91, 2.31, 1.53, 7.06, repro,
2006-05-07,1.08, -1.27, 12.69, 2.29, 1.52, 7.03, repro,
2006-05-08,0.85, -1.17, 7.44, 2.29, 1.52, 7.01, repro,
2006-05-09,2.13, -1.60, 5.54, 2.37, 1.58, 7.16, repro,
2006-05-10,3.81, -1.12, 6.65, 2.29, 1.52, 7.05, repro,
2006-05-11,-0.39, -1.04, 4.32, 2.31, 1.52, 7.11, repro,
2006-05-12,0.04, -2.56, 11.44, 2.28, 1.52, 7.06, repro,
2006-05-13,-0.59, -2.30, 7.82, 2.29, 1.52, 7.02, repro,
2006-05-14,0.12, -1.74, 1.96, 2.30, 1.52, 7.02, repro,
2006-05-15,0.39, -0.79, -2.68, 2.30, 1.51, 7.03, repro,
2006-05-16,0.39, -1.70, 10.24, 2.31, 1.54, 7.29, repro,
2006-05-17,1.51, -1.24, 8.37, 2.33, 1.56, 7.36, repro,
2006-05-18,1.92, -1.25, 13.34, 2.33, 1.55, 7.09, repro,
2006-05-19,0.89, -1.61, 6.30, 2.37, 1.58, 7.20, repro,
2006-05-20,-0.14, -2.35, 10.73, 2.36, 1.60, 7.23, repro,
2006-05-21,-0.73, -0.74, 15.98, 2.36, 1.57, 7.17, repro,
2006-05-22,0.90, -0.57, 21.25, 2.40, 1.62, 7.42, repro,
2006-05-23,-0.36, -2.87, 17.34, 2.37, 1.59, 7.22, repro,
2006-05-24,1.36, -1.40, 9.14, 2.36, 1.58, 7.17, repro,
2006-05-25,0.41, -3.32, 10.76, 2.39, 1.62, 7.39, repro,
2006-05-26,-0.03, -2.51, 13.21, 2.39, 1.61, 7.36, repro,
2006-05-27,0.99, -1.40, 8.69, 2.36, 1.58, 7.18, repro,
2006-05-28,-0.01, -2.59, 17.76, 2.36, 1.58, 7.20, repro,
2006-05-29,-0.18, -3.08, 5.55, 2.37, 1.60, 7.27, repro,
2006-05-30,-1.03, -1.98, 8.19, 2.41, 1.61, 7.39, repro,
2006-05-31,-2.15, -1.87, 10.36, 2.42, 1.63, 7.39, repro,
2006-06-01,-1.22, -2.55, 12.82, 2.36, 1.58, 7.21, repro,
2006-06-02,1.24, -1.86, 5.00, 2.51, 1.65, 7.52, repro,
2006-06-03,0.92, -1.43, 11.08, 2.44, 1.63, 7.43, repro,
2006-06-04,1.06, -2.15, 13.11, 2.42, 1.62, 7.35, repro,
2006-06-05,0.36, -1.95, 14.19, 2.42, 1.62, 7.41, repro,
2006-06-06,-1.38, -1.21, 8.70, 2.43, 1.62, 7.37, repro,
2006-06-07,-1.27, -1.83, 11.24, 2.43, 1.61, 7.36, repro,
2006-06-08,0.53, -2.18, 9.05, 2.37, 1.61, 7.33, repro,
2006-06-09,1.10, -2.05, 10.66, 2.36, 1.61, 7.29, repro,
2006-06-10,-0.35, -2.47, 9.92, 2.38, 1.60, 7.30, repro,
2006-06-11,-0.65, -2.91, 8.73, 2.37, 1.59, 7.22, repro,
2006-06-12,-0.36, -1.68, 17.52, 2.36, 1.58, 7.14, repro,
2006-06-13,-1.17, -2.64, 11.00, 2.36, 1.60, 7.26, repro,
2006-06-14,-1.25, -2.18, 15.49, 2.38, 1.60, 7.28, repro,
2006-06-15,-1.03, -0.55, 11.40, 2.41, 1.61, 7.36, repro,
2006-06-16,0.98, -3.13, 14.09, 2.37, 1.59, 7.23, repro,
2006-06-17,3.07, -1.74, 19.23, 2.36, 1.59, 7.20, repro,
2006-06-18,-0.64, -1.11, 13.38, 2.40, 1.64, 7.34, repro,
2006-06-19,-0.37, -2.00, 12.57, 2.42, 1.65, 7.44, repro,
2006-06-20,0.52, -2.45, 11.67, 2.43, 1.64, 7.36, repro,
2006-06-21,2.84, -0.00, 13.81, 2.45, 1.65, 7.51, repro,
2006-06-22,-2.00, -0.20, 14.21, 2.43, 1.64, 7.40, repro,
2006-06-23,-0.19, -2.17, 8.79, 2.41, 1.62, 7.31, repro,
2006-06-24,-2.11, -1.56, 5.24, 2.42, 1.64, 7.40, repro,
2006-06-25,2.08, -2.24, 5.94, 2.41, 1.65, 7.37, repro,
2006-06-26,-2.11, -1.29, -0.22, 2.46, 1.66, 7.49, repro,
2006-06-27,-0.07, -2.20, 12.82, 2.46, 1.68, 7.59, repro,
2006-06-28,-1.40, -2.19, 12.57, 2.41, 1.64, 7.36, repro,
2006-06-29,-1.39, -1.52, 14.85, 2.35, 1.58, 7.26, repro,
2006-06-30,-0.76, -2.74, 11.91, 2.33, 1.59, 7.42, repro,
2006-07-01,-0.88, -2.32, 15.12, 2.36, 1.58, 7.50, repro,
2006-07-02,-0.71, -2.29, 13.72, 2.37, 1.62, 7.59, repro,
2006-07-03,-0.49, -1.17, 13.56, 2.35, 1.60, 7.49, repro,
2006-07-04,-0.34, -3.72, 21.44, 2.35, 1.58, 7.44, repro,
2006-07-05,0.27, -2.33, 14.95, 2.35, 1.60, 7.52, repro,
2006-07-06,0.93, -2.94, 19.12, 2.34, 1.57, 7.39, repro,
2006-07-07,-0.06, -2.49, 13.61, 2.34, 1.58, 7.43, repro,
2006-07-08,1.87, -0.44, 9.50, 2.34, 1.59, 7.47, repro,
2006-07-09,-0.04, -2.60, 16.72, 2.34, 1.58, 7.46, repro,
2006-07-10,0.75, -2.05, 14.45, 2.44, 1.66, 7.81, repro,
2006-07-11,-1.64, -3.57, 18.37, 2.33, 1.61, 7.50, repro,
2006-07-12,0.32, -0.91, 15.52, 2.38, 1.61, 7.59, repro,
2006-07-13,-0.67, -2.65, 15.61, 2.36, 1.63, 7.59, repro,
2006-07-14,-1.21, -3.50, 17.93, 2.36, 1.59, 7.47, repro,
2006-07-15,1.06, -2.45, 17.00, 2.37, 1.59, 7.51, repro,
2006-07-16,0.72, -2.00, 14.87, 2.36, 1.60, 7.50, repro,
2006-07-17,0.11, -2.74, 18.51, 2.43, 1.66, 7.69, repro,
2006-07-18,-1.29, -2.69, 17.41, 2.31, 1.54, 7.14, repro,
2006-07-19,-2.10, -2.82, 17.48, 2.31, 1.56, 7.17, repro,
2006-07-20,3.22, -2.72, 23.28, 2.47, 1.64, 7.66, repro,
2006-07-21,3.35, 1.13, 6.91, 2.35, 1.57, 7.31, repro,
2006-07-22,-1.27, -1.79, 8.60, 2.37, 1.59, 7.25, repro,
2006-07-23,-0.07, -2.78, 10.82, 2.32, 1.55, 7.16, repro,
2006-07-24,-0.44, -0.15, 9.59, 2.33, 1.54, 7.20, repro,
2006-07-25,-1.93, -2.36, 14.20, 2.35, 1.55, 7.19, repro,
2006-07-26,-1.29, -1.85, 14.76, 2.34, 1.55, 7.22, repro,
2006-07-27,-0.85, -2.17, 13.69, 2.32, 1.56, 7.22, repro,
2006-07-28,-0.79, -2.27, 17.83, 2.34, 1.57, 7.19, repro,
2006-07-29,-1.48, -2.65, 11.10, 2.32, 1.55, 7.11, repro,
2006-07-30,-2.84, -2.41, 20.92, 2.40, 1.60, 7.31, repro,
2006-07-31,-0.47, -2.99, 30.28, 2.35, 1.56, 7.22, repro,
2006-08-01,-2.15, -2.49, 21.29, 2.34, 1.56, 7.21, repro,
2006-08-02,-1.77, -1.20, 13.17, 2.38, 1.58, 7.26, repro,
2006-08-03,-2.19, -3.10, 16.15, 2.36, 1.57, 7.20, repro,
2006-08-04,-2.22, -3.71, 14.96, 2.44, 1.65, 7.37, repro,
2006-08-05,-2.08, -1.28, 15.68, 2.40, 1.60, 7.43, repro,
2006-08-06,-1.71, -2.79, 11.22, 2.36, 1.59, 7.30, repro,
2006-08-07,-1.89, -4.21, 16.44, 2.42, 1.61, 7.40, repro,
2006-08-08,-0.60, -3.52, 11.15, 2.30, 1.53, 7.08, repro,
2006-08-09,-1.22, -3.40, 15.54, 2.32, 1.53, 7.08, repro,
2006-08-10,-1.25, -3.05, 13.98, 2.33, 1.54, 7.20, repro,
2006-08-11,-1.94, -3.50, 19.47, 2.31, 1.54, 7.16, repro,
2006-08-12,-1.26, -2.79, 9.60, 2.31, 1.53, 7.13, repro,
2006-08-13,-1.87, -3.69, 18.14, 2.31, 1.53, 7.12, repro,
2006-08-14,-3.98, -4.17, 16.31, 2.32, 1.53, 7.13, repro,
2006-08-15,-1.19, -3.83, 19.57, 2.39, 1.59, 7.40, repro,
2006-08-16,-1.91, -3.15, 20.23, 2.34, 1.54, 7.21, repro,
2006-08-17,-2.48, -2.99, 15.12, 2.31, 1.53, 7.13, repro,
2006-08-18,-0.20, -1.64, 23.68, 2.37, 1.58, 7.29, repro,
2006-08-19,-1.38, -2.79, 14.91, 2.34, 1.54, 7.20, repro,
2006-08-20,-1.98, -3.04, 21.74, 2.35, 1.56, 7.19, repro,
2006-08-21,-0.97, -3.86, 23.45, 2.36, 1.55, 7.31, repro,
2006-08-22,-1.44, -3.24, 23.70, 2.33, 1.54, 7.20, repro,
2006-08-23,-2.17, -3.63, 20.65, 2.33, 1.57, 7.27, repro,
2006-08-24,-0.31, -2.39, 20.31, 2.34, 1.56, 7.29, repro,
2006-08-25,-0.45, -2.53, 14.89, 2.40, 1.61, 7.45, repro,
2006-08-26,-0.92, -2.20, 15.68, 2.45, 1.63, 7.56, repro,
2006-08-27,1.14, -4.25, 26.24, 2.47, 1.65, 7.64, repro,
2006-08-28,-1.75, -3.23, 18.75, 2.52, 1.69, 7.60, repro,
2006-08-29,-0.19, -4.05, 25.01, 2.45, 1.65, 7.56, repro,
2006-08-30,-0.59, -3.94, 29.08, 2.44, 1.63, 7.47, repro,
2006-08-31,-0.75, -2.42, 19.64, 2.47, 1.65, 7.60, repro,
2006-09-01,1.57, -1.32, 13.04, 2.47, 1.67, 7.68, repro,
2006-09-02,-0.33, -2.27, 14.87, 2.56, 1.73, 7.90, repro,
2006-09-03,-1.16, -4.36, 22.72, 2.45, 1.64, 7.50, repro,
2006-09-04,1.91, -5.18, 17.58, 2.57, 1.70, 7.95, repro,
2006-09-05,-0.15, -3.25, 16.32, 2.52, 1.67, 7.75, repro,
2006-09-06,0.21, -3.90, 14.12, 2.46, 1.63, 7.55, repro,
2006-09-07,-1.07, -2.55, 26.93, 2.53, 1.67, 7.80, repro,
2006-09-08,-1.75, -1.99, 18.83, 2.51, 1.67, 7.75, repro,
2006-09-09,-1.71, -3.61, 28.31, 2.41, 1.61, 7.47, repro,
2006-09-10,-1.04, -2.66, 22.65, 2.40, 1.60, 7.41, repro,
2006-09-11,-0.59, -3.83, 27.85, 2.40, 1.59, 7.42, repro,
2006-09-12,-1.88, -3.38, 11.72, 2.40, 1.59, 7.40, repro,
2006-09-13,-2.46, -3.18, 24.48, 2.40, 1.59, 7.40, repro,
2006-09-14,-6.63, -4.77, 18.36, 2.46, 1.66, 7.51, repro,
2006-09-15,-0.72, -4.42, 23.03, 2.40, 1.62, 7.38, repro,
2006-09-16,-2.99, -4.05, 21.65, 2.34, 1.55, 7.28, repro,
2006-09-17,0.66, -6.20, 32.60, 2.40, 1.61, 7.53, repro,
2006-09-18,-2.70, -3.23, 22.27, 2.35, 1.55, 7.29, repro,
2006-09-19,-3.28, -2.24, 21.96, 2.33, 1.55, 7.24, repro,
2006-09-20,-3.58, -3.41, 18.82, 2.34, 1.55, 7.24, repro,
2006-09-21,-3.87, -3.22, 25.29, 2.41, 1.59, 7.36, repro,
2006-09-22,-3.83, -3.12, 15.93, 2.47, 1.65, 7.61, repro,
2006-09-23,-2.26, -2.03, 23.42, 2.42, 1.61, 7.52, repro,
2006-09-24,-1.89, -4.12, 12.14, 2.40, 1.63, 7.56, repro,
2006-09-25,-1.98, -4.87, 16.96, 2.35, 1.58, 7.35, repro,
2006-09-26,-2.19, -3.33, 16.63, 2.35, 1.57, 7.33, repro,
2006-09-27,-1.76, -1.66, 15.84, 2.38, 1.57, 7.38, repro,
2006-09-28,-3.18, -2.68, 19.54, 2.36, 1.56, 7.35, repro,
2006-09-29,-2.35, -3.62, 19.96, 2.38, 1.57, 7.42, repro,
2006-09-30,-5.36, -3.41, 21.43, 2.41, 1.60, 7.59, repro,
2006-10-01,-2.13, -5.64, 22.34, 2.34, 1.55, 7.28, repro,
2006-10-02,-3.34, -3.10, 11.10, 2.42, 1.61, 7.44, repro,
2006-10-03,-1.59, -3.01, 14.28, 2.44, 1.61, 7.49, repro,
2006-10-04,-1.93, -2.23, 20.53, 2.37, 1.57, 7.42, repro,
2006-10-05,-2.53, -3.45, 17.18, 2.38, 1.57, 7.39, repro,
2006-10-06,-2.01, -2.58, 18.38, 2.38, 1.58, 7.43, repro,
2006-10-07,-3.49, -4.26, 12.65, 2.43, 1.60, 7.52, repro,
2006-10-08,-1.38, -3.31, 11.80, 2.41, 1.58, 7.40, repro,
2006-10-09,-3.22, -2.88, 16.49, 2.38, 1.58, 7.41, repro,
2006-10-10,-1.15, -2.15, 14.73, 2.38, 1.58, 7.41, repro,
2006-10-11,-3.51, -1.86, 12.37, 2.37, 1.58, 7.41, repro,
2006-10-12,-2.19, -3.60, 18.03, 2.37, 1.57, 7.37, repro,
2006-10-13,-0.80, -2.64, 11.83, 2.31, 1.53, 7.21, repro,
2006-10-14,-1.01, -3.27, 16.46, 2.32, 1.53, 7.23, repro,
2006-10-15,-2.38, -4.01, 24.07, 2.37, 1.57, 7.35, repro,
2006-10-16,-1.68, -2.54, 18.56, 2.32, 1.54, 7.26, repro,
2006-10-17,0.02, -2.44, 16.84, 2.43, 1.59, 7.63, repro,
2006-10-18,3.38, -1.87, 21.27, 2.34, 1.54, 7.26, repro,
2006-10-19,-0.55, -3.37, 16.38, 2.42, 1.57, 7.53, repro,
2006-10-20,-1.28, -3.01, 20.42, 2.61, 1.72, 8.32, repro,
2006-10-21,1.41, -3.87, 16.98, 2.54, 1.65, 7.98, repro,
2006-10-22,-1.73, -2.60, 11.85, 2.47, 1.58, 7.66, repro,
2006-10-23,0.65, -3.46, 28.10, 2.37, 1.58, 7.39, repro,
2006-10-24,-1.08, -2.57, 22.40, 2.55, 1.64, 7.79, repro,
2006-10-25,0.05, -1.65, 20.32, 2.55, 1.69, 7.93, repro,
2006-10-26,-1.17, -2.48, 23.83, 2.41, 1.59, 7.63, repro,
2006-10-27,-2.48, -3.18, 8.23, 2.30, 1.53, 7.23, repro,
2006-10-28,-0.46, -2.37, 16.64, 2.49, 1.62, 7.75, repro,
2006-10-29,0.60, -2.11, 17.50, 2.36, 1.55, 7.49, repro,
2006-10-30,0.27, -2.49, 10.41, 2.30, 1.52, 7.14, repro,
2006-10-31,0.26, -2.24, 13.27, 2.33, 1.54, 7.36, repro,
2006-11-01,1.64, -2.91, 10.09, 2.49, 1.60, 7.68, repro,
2006-11-02,0.53, -4.01, 17.23, 2.40, 1.59, 7.50, repro,
2006-11-03,2.06, -3.94, 24.91, 2.40, 1.57, 7.52, repro,
2006-11-04,0.31, -3.88, 20.70, 2.43, 1.61, 7.46, repro,
2006-11-05,-0.06, -2.79, 17.14, 2.38, 1.56, 7.30, repro,
2006-11-06,0.15, -4.00, 19.76, 2.29, 1.52, 7.20, repro,
2006-11-07,1.00, -5.30, 17.82, 2.50, 1.62, 7.61, repro,
2006-11-08,0.65, -4.14, 19.40, 2.45, 1.60, 7.54, repro,
2006-11-09,0.70, -3.47, 21.55, 2.44, 1.60, 7.52, repro,
2006-11-10,-2.36, -1.10, 17.08, 2.43, 1.60, 7.50, repro,
2006-11-11,2.20, -2.56, 22.07, 2.43, 1.60, 7.54, repro,
2006-11-12,-0.30, -2.07, 15.37, 2.44, 1.61, 7.56, repro,
2006-11-13,0.79, -3.82, 25.99, 2.42, 1.60, 7.43, repro,
2006-11-14,-0.25, 0.26, 20.08, 2.34, 1.54, 7.27, repro,
2006-11-15,0.59, -0.64, 13.01, 2.30, 1.52, 7.20, repro,
2006-11-16,-0.01, -1.54, 14.09, 2.26, 1.51, 7.09, repro,
2006-11-17,2.32, -4.04, 13.66, 2.29, 1.52, 7.18, repro,
2006-11-18,0.64, -5.37, 8.92, 2.29, 1.53, 7.29, repro,
2006-11-19,-1.17, -4.55, 21.16, 2.33, 1.55, 7.44, repro,
2006-11-20,-0.42, -4.26, 3.06, 2.29, 1.53, 7.22, repro,
2006-11-21,-0.08, -3.77, 16.36, 2.26, 1.50, 7.07, repro,
2006-11-22,-0.40, -3.03, 16.87, 2.29, 1.52, 7.15, repro,
2006-11-23,-0.02, -2.97, 7.15, 2.36, 1.56, 7.33, repro,
2006-11-24,0.29, -2.64, 9.89, 2.41, 1.60, 7.51, repro,
2006-11-25,0.47, -2.34, 10.56, 2.27, 1.51, 7.12, repro,
2006-11-26,0.34, -2.29, 5.93, 2.26, 1.50, 7.08, repro,
2006-11-27,0.79, -2.15, 10.00, 2.31, 1.53, 7.16, repro,
2006-11-28,-0.23, -2.14, 9.74, 2.30, 1.51, 7.19, repro,
2006-11-29,-2.25, -2.48, 13.72, 2.31, 1.53, 7.25, repro,
2006-11-30,1.63, -3.58, 5.64, 2.31, 1.54, 7.31, repro,
2006-12-01,1.34, -1.80, 2.02, 2.27, 1.50, 7.10, repro,
2006-12-02,-0.06, -3.12, 5.15, 2.28, 1.51, 7.17, repro,
2006-12-03,3.72, -3.15, 12.76, 2.30, 1.52, 7.19, repro,
2006-12-04,0.36, -3.43, 11.56, 2.32, 1.53, 7.26, repro,
2006-12-05,0.87, -2.75, 2.24, 2.36, 1.57, 7.48, repro,
2006-12-06,-2.20, -1.78, 7.76, 2.33, 1.56, 7.41, repro,
2006-12-07,-3.57, -2.27, 7.93, 2.33, 1.55, 7.40, repro,
2006-12-08,-1.89, -3.00, 15.24, 2.33, 1.56, 7.41, repro,
2006-12-09,-1.34, -2.87, 13.18, 2.34, 1.56, 7.44, repro,
2006-12-10,-0.96, -1.99, 19.24, 2.39, 1.61, 7.60, repro,
2006-12-11,-1.14, -2.65, 17.06, 2.32, 1.54, 7.30, repro,
2006-12-12,-0.33, -2.81, 14.63, 2.34, 1.59, 7.43, repro,
2006-12-13,0.41, -4.15, 22.02, 2.32, 1.57, 7.32, repro,
2006-12-14,-1.00, -1.36, 18.26, 2.31, 1.56, 7.23, repro,
2006-12-15,-2.43, -2.34, 18.52, 2.48, 1.65, 7.85, repro,
2006-12-16,-1.40, -1.76, 9.56, 2.38, 1.59, 7.49, repro,
2006-12-17,0.35, -3.91, 9.53, 2.35, 1.64, 7.63, repro,
2006-12-18,-0.69, -2.73, 13.81, 2.41, 1.67, 7.72, repro,
2006-12-19,-0.10, -2.65, 17.88, 2.38, 1.66, 7.95, repro,
2006-12-20,-1.43, -1.17, 16.48, 2.35, 1.64, 7.74, repro,
2006-12-21,-1.51, -3.79, 21.82, 2.29, 1.60, 7.56, repro,
2006-12-22,-3.73, -2.61, 5.15, 2.37, 1.67, 7.99, repro,
2006-12-23,1.73, 0.07, 10.10, 2.26, 1.56, 7.35, repro,
2006-12-24,0.15, -1.20, 1.94, 2.28, 1.54, 7.11, repro,
2006-12-25,-1.28, -1.55, 6.39, 2.35, 1.63, 7.69, repro,
2006-12-26,1.14, -1.15, 2.13, 2.34, 1.59, 7.40, repro,
2006-12-27,-1.08, -2.88, 8.16, 2.38, 1.62, 7.37, repro,
2006-12-28,2.66, -0.58, 7.21, 2.42, 1.74, 8.06, repro,
2006-12-29,-4.38, -0.46, -0.57, 2.35, 1.61, 7.29, repro,
2006-12-30,-0.17, -1.15, 0.52, 2.37, 1.64, 7.51, repro,
2006-12-31,4.43, 0.89, 10.57, 2.49, 1.76, 7.89, repro,
2007-01-01,1.48, -1.14, 7.78, 2.45, 1.71, 7.78, repro,
2007-01-02,-0.56, -2.10, 12.21, 2.39, 1.72, 7.93, repro,
2007-01-03,1.08, -2.48, 14.14, 2.31, 1.59, 7.23, repro,
2007-01-04,-2.25, -0.98, 3.91, 2.30, 1.57, 7.21, repro,
2007-01-05,1.14, -0.34, 8.96, 2.32, 1.57, 7.20, repro,
2007-01-06,-1.22, -0.02, 5.32, 2.32, 1.57, 7.25, repro,
2007-01-07,-0.06, -3.06, 9.75, 2.36, 1.57, 7.28, repro,
2007-01-08,-0.89, -0.52, -4.28, 2.35, 1.61, 7.37, repro,
2007-01-09,-1.37, 1.61, 3.68, 2.34, 1.59, 7.37, repro,
2007-01-10,0.97, -1.24, 9.03, 2.34, 1.54, 7.20, repro,
2007-01-11,0.94, -0.79, -2.64, 2.37, 1.57, 7.38, repro,
2007-01-12,-0.56, -0.94, -0.05, 2.31, 1.54, 7.26, repro,
2007-01-13,0.81, -1.90, -0.07, 2.27, 1.52, 7.05, repro,
2007-01-14,0.90, -2.13, -6.83, 2.26, 1.50, 7.01, repro,
2007-01-15,-0.40, -1.82, -1.22, 2.24, 1.51, 7.08, repro,
2007-01-16,-0.85, -1.99, 2.08, 2.32, 1.55, 7.12, repro,
2007-01-17,-0.04, -0.61, -2.10, 2.34, 1.57, 7.31, repro,
2007-01-18,-0.32, -3.15, 0.09, 2.33, 1.56, 7.17, repro,
2007-01-19,0.38, -3.28, 11.97, 3.95, 2.53, 12.19, repro,
2007-01-22,6.93, -1.07, -19.81, 7.90, 5.82, 22.90, repro,
2007-01-23,3.04, -1.51, 12.71, 3.07, 1.95, 9.19, repro,
2007-01-25,3.24, -3.74, 3.29, 7.63, 5.82, 22.23, repro,
2007-01-26,-0.50, -0.03, -5.32, 2.27, 1.51, 7.02, repro,
2007-01-27,0.12, -0.83, -5.77, 2.27, 1.53, 7.12, repro,
2007-01-28,2.86, -0.79, 1.97, 3.50, 2.25, 10.24, repro,
2007-01-29,-1.49, -3.03, 3.93, 6.21, 4.34, 19.04, repro,
2007-01-30,0.09, -1.98, 1.10, 2.25, 1.50, 6.97, repro,
2007-01-31,-0.88, -1.05, 2.16, 2.26, 1.51, 7.04, repro,
2007-02-01,0.41, 0.55, 3.24, 2.31, 1.55, 7.14, repro,
2007-02-02,1.08, 0.24, -2.12, 2.27, 1.54, 7.17, repro,
2007-02-03,2.39, -1.24, 10.50, 2.29, 1.54, 7.17, repro,
2007-02-04,-0.29, -1.84, -3.49, 2.24, 1.51, 6.98, repro,
2007-02-05,-1.66, -1.96, -2.81, 2.29, 1.54, 7.11, repro,
2007-02-06,1.08, -1.37, -5.79, 2.27, 1.53, 7.07, repro,
2007-02-07,1.40, -2.06, 2.39, 2.27, 1.52, 7.01, repro,
2007-02-08,1.24, -1.80, 6.43, 2.28, 1.54, 7.16, repro,
2007-02-09,2.06, -1.54, 1.97, 2.29, 1.55, 7.14, repro,
2007-02-10,0.26, -1.32, 6.29, 2.26, 1.52, 7.04, repro,
2007-02-11,0.81, -2.59, 12.98, 2.31, 1.54, 7.13, repro,
2007-02-12,0.55, -1.93, 4.33, 2.30, 1.54, 7.09, repro,
2007-02-13,1.99, -0.93, 0.45, 2.29, 1.54, 7.06, repro,
2007-02-14,3.63, -2.34, 4.57, 2.25, 1.52, 6.97, repro,
2007-02-15,4.21, -1.66, 1.81, 2.25, 1.52, 7.00, repro,
2007-02-16,2.13, -1.02, 9.39, 2.27, 1.55, 7.05, repro,
2007-02-17,3.18, -0.96, 10.18, 2.33, 1.56, 7.18, repro,
2007-02-18,-0.57, -1.72, 6.74, 2.21, 1.51, 7.01, repro,
2007-02-19,1.51, -2.73, 12.19, 2.23, 1.52, 6.96, repro,
2007-02-20,2.17, -1.86, 16.83, 2.24, 1.52, 6.97, repro,
2007-02-21,4.25, -2.90, 13.21, 2.27, 1.53, 7.03, repro,
2007-02-22,2.01, -2.12, 4.53, 2.27, 1.53, 7.02, repro,
2007-02-23,3.02, -1.44, 5.60, 2.22, 1.50, 6.95, repro,
2007-02-24,1.28, -2.02, 6.78, 2.25, 1.52, 6.98, repro,
2007-02-25,2.12, -2.42, 7.43, 2.25, 1.53, 6.95, repro,
2007-02-26,2.75, -1.16, 7.33, 2.25, 1.52, 6.92, repro,
2007-02-27,3.87, -1.88, 7.07, 2.26, 1.52, 6.93, repro,
2007-02-28,2.32, -0.64, 12.41, 2.24, 1.50, 6.89, repro,
2007-03-01,1.60, -0.76, 7.76, 2.34, 1.58, 7.19, repro,
2007-03-02,5.13, 2.47, 13.60, 2.36, 1.59, 7.25, repro,
2007-03-03,1.58, -0.74, 3.38, 2.30, 1.56, 7.09, repro,
2007-03-04,2.49, -1.03, 2.10, 2.37, 1.57, 7.23, repro,
2007-03-05,3.83, -2.57, 7.06, 2.30, 1.54, 7.02, repro,
2007-03-06,-0.53, -1.26, 3.51, 2.31, 1.55, 7.08, repro,
2007-03-07,-2.29, -2.05, 4.07, 2.34, 1.56, 7.18, repro,
2007-03-08,0.47, 2.00, 4.68, 2.33, 1.57, 7.16, repro,
2007-03-09,4.00, -3.34, 7.07, 2.34, 1.55, 7.12, repro,
2007-03-10,2.51, -0.73, 9.97, 2.37, 1.56, 7.11, repro,
2007-03-11,1.78, 0.20, 3.12, 2.32, 1.55, 7.06, repro,
2007-03-12,1.48, -1.37, 0.16, 2.33, 1.56, 7.12, repro,
2007-03-13,5.45, -0.57, 6.54, 2.23, 1.53, 7.06, repro,
2007-03-14,2.32, -0.77, 1.79, 2.29, 1.54, 7.06, repro,
2007-03-15,3.91, 0.77, -3.55, 2.34, 1.58, 7.20, repro,
2007-03-16,1.59, -2.17, -7.66, 2.31, 1.53, 7.05, repro,
2007-03-17,0.44, -2.64, -2.61, 2.28, 1.53, 7.02, repro,
2007-03-18,-0.12, 0.32, 7.79, 2.28, 1.54, 7.06, repro,
2007-03-19,-0.77, -0.97, 8.86, 2.29, 1.55, 7.10, repro,
2007-03-20,-0.62, -1.04, 8.44, 2.43, 1.59, 7.30, repro,
2007-03-21,0.73, 1.31, 10.57, 2.36, 1.57, 7.06, repro,
2007-03-22,-1.74, -0.79, 13.35, 2.26, 1.52, 7.07, repro,
2007-03-23,-0.10, -1.20, 10.92, 2.28, 1.55, 7.09, repro,
2007-03-24,-0.28, -0.53, 11.37, 2.29, 1.55, 7.06, repro,
2007-03-25,1.95, -0.54, 11.01, 2.25, 1.53, 7.11, repro,
2007-03-26,0.73, 0.90, -1.87, 2.26, 1.52, 6.95, repro,
2007-03-27,1.73, 0.61, 4.54, 2.29, 1.55, 7.12, repro,
2007-03-28,1.47, 2.27, -10.63, 2.31, 1.57, 7.25, repro,
2007-03-29,-0.09, 0.20, -7.66, 2.24, 1.53, 7.14, repro,
2007-03-30,0.06, -0.31, -3.38, 2.27, 1.53, 7.03, repro,
2007-03-31,0.17, 0.01, -1.02, 2.28, 1.52, 7.03, repro,
2007-04-01,0.64, 0.31, 1.03, 2.28, 1.53, 7.02, repro,
2007-04-02,1.17, 0.88, -1.29, 2.26, 1.53, 7.01, repro,
2007-04-03,2.26, 1.05, -9.70, 2.32, 1.56, 7.21, repro,
2007-04-04,2.18, 0.48, -5.25, 2.28, 1.53, 7.05, repro,
2007-04-05,0.85, 2.33, -3.44, 2.31, 1.57, 7.32, repro,
2007-04-06,0.29, 1.43, -2.12, 2.28, 1.54, 7.11, repro,
2007-04-07,-0.42, -0.29, 4.75, 2.27, 1.53, 7.01, repro,
2007-04-08,0.02, 3.07, 4.95, 2.29, 1.53, 7.08, repro,
2007-04-09,0.30, -1.55, 7.65, 2.27, 1.53, 7.05, repro,
2007-04-10,3.54, -0.50, 12.68, 2.33, 1.56, 7.22, repro,
2007-04-11,0.01, 0.01, 9.53, 2.27, 1.52, 7.01, repro,
2007-04-12,1.20, 0.08, 10.51, 2.26, 1.52, 6.95, repro,
2007-04-13,1.55, -0.78, 7.13, 2.26, 1.53, 6.98, repro,
2007-04-14,2.63, -0.76, 8.23, 2.28, 1.55, 7.06, repro,
2007-04-15,2.61, 0.49, 6.95, 2.30, 1.54, 7.08, repro,
2007-04-16,0.13, -0.34, 8.88, 2.28, 1.53, 7.06, repro,
2007-04-17,1.27, -1.74, 6.18, 2.27, 1.52, 7.01, repro,
2007-04-18,0.88, -0.22, 2.38, 2.27, 1.52, 6.98, repro,
2007-04-19,2.12, -0.60, -0.52, 2.27, 1.52, 7.01, repro,
2007-04-20,1.62, -0.16, 0.16, 2.27, 1.53, 7.01, repro,
2007-04-21,2.47, -1.54, 6.83, 2.29, 1.52, 7.02, repro,
2007-04-22,1.07, -1.23, 3.76, 2.28, 1.51, 7.01, repro,
2007-04-23,7.39, -0.32, 6.95, 2.34, 1.57, 7.23, repro,
2007-04-24,3.77, -0.60, 8.04, 2.32, 1.54, 7.13, repro,
2007-04-25,5.28, 0.38, 11.72, 2.31, 1.53, 7.07, repro,
2007-04-26,5.67, 1.31, 7.34, 2.30, 1.52, 7.06, repro,
2007-04-27,5.89, -0.27, 8.72, 2.29, 1.51, 7.02, repro,
2007-04-28,3.23, -0.73, 3.79, 2.29, 1.53, 7.06, repro,
2007-04-29,2.87, 0.02, 9.03, 2.28, 1.53, 7.07, repro,
2007-04-30,1.79, -0.38, 2.51, 2.27, 1.51, 6.96, repro,
2007-05-01,6.15, -0.60, 3.43, 2.29, 1.52, 7.04, repro,
2007-05-02,2.26, -0.04, -0.29, 2.36, 1.55, 7.23, repro,
2007-05-03,1.37, -1.17, 6.34, 2.37, 1.55, 7.24, repro,
2007-05-04,2.68, 1.88, 2.27, 2.29, 1.53, 7.08, repro,
2007-05-05,1.70, 0.19, 5.84, 2.32, 1.56, 7.35, repro,
2007-05-06,2.28, -2.32, 10.86, 2.30, 1.53, 7.08, repro,
2007-05-07,1.40, -0.26, -0.58, 2.30, 1.52, 7.01, repro,
2007-05-08,1.99, -0.34, 5.95, 2.31, 1.53, 7.08, repro,
2007-05-09,2.76, 0.38, 3.83, 2.31, 1.54, 7.13, repro,
2007-05-10,3.73, 0.07, -1.56, 2.37, 1.61, 7.53, repro,
2007-05-11,3.00, -0.10, 1.09, 2.37, 1.58, 7.43, repro,
2007-05-12,1.77, -0.56, 3.93, 2.29, 1.53, 7.07, repro,
2007-05-13,1.16, 0.30, 2.89, 2.31, 1.53, 7.08, repro,
2007-05-14,2.17, -0.24, 0.85, 2.34, 1.55, 7.18, repro,
2007-05-15,1.72, -0.38, 3.68, 2.29, 1.54, 7.10, repro,
2007-05-16,4.48, 0.46, 1.23, 2.30, 1.52, 7.06, repro,
2007-05-17,1.92, -0.27, 3.14, 2.36, 1.53, 7.20, repro,
2007-05-18,1.49, 0.12, 2.19, 2.36, 1.54, 7.23, repro,
2007-05-19,1.79, -0.64, 7.50, 2.37, 1.59, 7.28, repro,
2007-05-20,1.68, -1.41, 2.96, 2.32, 1.54, 7.13, repro,
2007-05-21,2.50, -0.88, 0.32, 2.30, 1.55, 7.14, repro,
2007-05-22,2.37, 0.62, -0.68, 2.30, 1.53, 7.08, repro,
2007-05-23,1.22, -0.23, 5.46, 2.31, 1.51, 7.07, repro,
2007-05-24,0.87, -1.57, 3.71, 2.39, 1.58, 7.30, repro,
2007-05-25,2.69, -1.85, 5.03, 2.34, 1.54, 7.22, repro,
2007-05-26,1.65, -1.35, 10.25, 2.30, 1.55, 7.16, repro,
2007-05-27,2.21, -0.62, 8.10, 2.31, 1.54, 7.16, repro,
2007-05-28,2.35, -0.92, 5.04, 2.30, 1.52, 7.03, repro,
2007-05-29,0.72, -0.96, 8.34, 2.30, 1.53, 7.07, repro,
2007-05-30,2.96, -3.39, 15.34, 2.38, 1.57, 7.27, repro,
2007-05-31,1.67, -0.98, 7.52, 2.31, 1.55, 7.16, repro,
2007-06-01,0.73, 0.38, 1.99, 2.31, 1.54, 7.15, repro,
2007-06-02,1.27, -0.81, 13.19, 2.29, 1.53, 7.07, repro,
2007-06-03,2.13, -2.49, 11.13, 2.32, 1.52, 7.10, repro,
2007-06-04,0.03, 0.25, 17.66, 2.33, 1.53, 7.11, repro,
2007-06-05,1.76, -1.06, 12.48, 2.37, 1.57, 7.29, repro,
2007-06-06,1.87, -1.08, 16.71, 2.31, 1.55, 7.16, repro,
2007-06-07,2.01, -1.75, 16.26, 2.30, 1.55, 7.12, repro,
2007-06-08,1.28, -0.73, 5.62, 2.31, 1.54, 7.12, repro,
2007-06-09,0.88, -2.35, 17.75, 2.33, 1.55, 7.17, repro,
2007-06-10,2.37, -2.92, 20.26, 2.35, 1.55, 7.21, repro,
2007-06-11,2.27, -0.66, 6.89, 2.35, 1.59, 7.34, repro,
2007-06-12,-0.81, -1.54, 5.75, 2.33, 1.57, 7.23, repro,
2007-06-13,-0.30, -0.41, 0.79, 2.31, 1.53, 7.07, repro,
2007-06-14,2.33, -1.52, 1.51, 2.31, 1.54, 7.11, repro,
2007-06-15,2.44, -1.29, 3.69, 2.29, 1.54, 7.15, repro,
2007-06-16,0.49, -0.66, 6.18, 2.31, 1.54, 7.11, repro,
2007-06-17,1.76, -1.30, 6.10, 2.33, 1.54, 7.15, repro,
2007-06-18,3.73, -2.32, 11.57, 2.30, 1.54, 7.09, repro,
2007-06-19,2.62, 0.16, 6.39, 2.34, 1.54, 7.20, repro,
2007-06-20,2.89, -2.07, 15.23, 2.32, 1.56, 7.17, repro,
2007-06-21,0.78, -1.49, 13.87, 2.31, 1.53, 7.10, repro,
2007-06-22,1.73, -2.30, 5.79, 2.34, 1.56, 7.25, repro,
2007-06-23,1.41, -1.79, 9.40, 2.30, 1.53, 7.06, repro,
2007-06-24,1.01, -1.13, 8.02, 2.36, 1.58, 7.25, repro,
2007-06-25,0.25, -1.09, 5.48, 2.31, 1.54, 7.11, repro,
2007-06-26,0.92, -0.91, 11.04, 2.31, 1.54, 7.08, repro,
2007-06-27,1.03, -1.18, 8.86, 2.30, 1.53, 7.08, repro,
2007-06-28,-0.17, -1.90, 6.93, 2.32, 1.54, 7.12, repro,